Current Conditions
Mostly Scattered
Clouds



Pressure
30.08 (inHG) - 1018.62 (mb)
Visibility

9.9 (mimiles) - 16.0 (km)
   Temperature
84  °F
29°C
66  °F
Dewpoint
55  %
 Humidity
   Wind Speed
0  mph
0  kts
0  km/h
0  m/s
   Wind Direction
Calm
Due North
   Airport Data
KDWH
Location David Wayne Hooks Memorial Airport 4.4 mi (7.08 km)
Metar :KDWH 211953Z 00000KT 10SM SCT042 29/19 A3008 RMK AO2 SLP185 T02890194
Thu 21st October 14:53 pm
   Raw Metar Info
Raw METAR is the most common format in the world for the transmission of observational weather data. It is highly standardized through the International Civil Aviation Organization (ICAO), which allows it to be understood throughout most of the world.
   API Info
Data Provided by
https://www.checkwx.com/weather/KDWH
   © Info
CSS/SVG/PHP scripts were developed by weather34.com for use in the weather34 template © 2015-2021

Guide Info provided by Metar-Wikipedia